Location: Unspecified
(0.0000°N, 0.0000°E)
Time: 14:12:30
(UTC+01:00)

Cosmos 1072 Rocket - Visible Passes

Search period start: 21 January 2017 00:00
Search period end: 31 January 2017 00:00
Orbit: 948 x 1009 km, 82.9° (Epoch: 20 January)

Date Brightness Start Highest point End Pass type
(mag) Time Alt. Az. Time Alt. Az. Time Alt. Az.
21 Jan 6.8 05:04:43 10° SE 05:09:23 22° E 05:13:59 10° NE visible
22 Jan 5.4 05:29:38 10° SSE 05:35:41 49° E 05:41:36 10° NNE visible
23 Jan 4.4 05:55:42 10° S 06:01:58 75° W 06:08:07 10° N visible
24 Jan 6.8 04:38:52 10° SE 04:43:05 19° E 04:47:14 10° NE visible
24 Jan 5.1 06:22:42 10° SSW 06:28:13 33° W 06:33:40 10° NNW visible
25 Jan 5.5 05:03:30 10° SSE 05:09:23 43° E 05:15:09 10° NNE visible
26 Jan 4.4 05:29:23 10° S 05:35:40 85° W 05:41:49 10° N visible
27 Jan 6.9 04:13:06 10° SE 04:16:46 16° E 04:20:23 10° ENE visible
27 Jan 4.9 05:56:14 10° SSW 06:01:55 38° W 06:07:32 10° NNW visible
28 Jan 5.7 04:37:23 10° SSE 04:43:04 37° E 04:48:38 10° NNE visible
28 Jan 5.8 06:24:28 10° SW 06:28:10 16° W 06:31:51 10° NW visible
29 Jan 4.4 05:03:07 10° S 05:09:21 84° E 05:10:58 52° N visible
30 Jan 7.0 03:47:31 10° ESE 03:50:16 14° E 03:50:16 14° E visible
30 Jan 4.8 05:29:46 10° SSW 05:34:51 41° WSW 05:34:51 41° WSW visible
